sat.trackr.live / text

‹ back to catalog

STARLINK-35649

NORAD 66125 · 2025-237M

PAYLOAD ACTIVE UNKNOWN

§ Identity

Operator
Country
US
Launch date
2025-10-22
Launch site
AFWTR
Launch vehicle
Mass (kg)
RCS (m²)

Purposes: comms

External: N2YO · Heavens-Above · Gunter

§ Orbital elements

Epoch: 2026-09-20T13:47:07.529280Z

Period
93.85 min
Inclination
53.1584°
Eccentricity
0.0001748
Mean motion
15.34404331 rev/d
Perigee alt
461.5 km
Apogee alt
463.9 km
Semi-major
6,840.8 km
B*
4.8402e-4
RAAN
211.1832°
Arg perigee
81.7269°
Mean anomaly
278.3932°
Rev number
5,249

§ Raw data

STARLINK-356491 66125U 25237M   26263.57439270  .00016014  00000+0  48402-3 0  99972 66125  53.1584 211.1832 0001748  81.7269 278.3932 15.34404331 52491

JSON: /api/v1/satellites/66125 · /tle

For live sub-satellite position, see the globe view (requires WebGL).

§ Visibility from observer

Set your observer location to see the next 7 days of passes ≥ 10°. The values pass through the URL so the page stays shareable.

No JS? Fill the form by hand. The geolocation button needs JavaScript.